| time (UTC) | temp C | wind direction | speed KPH | gust KPH | rain 1hr cm | rain 24hr cm | rain mn cm | humidity % | barometer mb |
| 20260504224143 | 19 | 313 | 4.8 | 12.9 | 0.00 | 0.00 | 0.00 | 40 | 1010.0 |
| 20260504223641 | 19 | 320 | 4.8 | 11.3 | 0.00 | 0.00 | 0.00 | 39 | 1009.8 |
| 20260504223136 | 20 | 73 | 3.2 | 4.8 | 0.00 | 0.00 | 0.00 | 36 | 1009.8 |
| 20260504222634 | 20 | 322 | 6.4 | 11.3 | 0.00 | 0.00 | 0.00 | 36 | 1009.7 |
| 20260504222130 | 20 | 150 | 4.8 | 9.7 | 0.00 | 0.00 | 0.00 | 35 | 1009.7 |
| 20260504221628 | 21 | 108 | 6.4 | 9.7 | 0.00 | 0.00 | 0.00 | 32 | 1009.9 |
| 20260504221125 | 21 | 92 | 1.6 | 4.8 | 0.00 | 0.00 | 0.00 | 32 | 1009.5 |
| 20260504220621 | 21 | 354 | 3.2 | 4.8 | 0.00 | 0.00 | 0.00 | 32 | 1009.7 |
| 20260504220120 | 21 | 309 | 3.2 | 4.8 | 0.00 | 0.00 | 0.00 | 32 | 1009.6 |
| 20260504215615 | 21 | 310 | 4.8 | 9.7 | 0.00 | 0.00 | 0.00 | 32 | 1009.5 |
| 20260504215113 | 21 | 308 | 1.6 | 3.2 | 0.00 | 0.00 | 0.00 | 33 | 1009.6 |
| 20260504214608 | 21 | 311 | 0.0 | 3.2 | 0.00 | 0.00 | 0.00 | 32 | 1009.6 |
| 20260504214105 | 21 | 129 | 3.2 | 4.8 | 0.00 | 0.00 | 0.00 | 30 | 1009.6 |
| 20260504213601 | 21 | 298 | 4.8 | 11.3 | 0.00 | 0.00 | 0.00 | 31 | 1009.7 |
| 20260504213058 | 22 | 326 | 1.6 | 8.0 | 0.00 | 0.00 | 0.00 | 30 | 1009.5 |
| 20260504212554 | 22 | 62 | 4.8 | 11.3 | 0.00 | 0.00 | 0.00 | 29 | 1009.8 |
| 20260504212052 | 22 | 253 | 1.6 | 3.2 | 0.00 | 0.00 | 0.00 | 30 | 1009.6 |
| 20260504211549 | 22 | 67 | 6.4 | 8.0 | 0.00 | 0.00 | 0.00 | 29 | 1009.6 |
| 20260504211045 | 22 | 323 | 1.6 | 14.5 | 0.00 | 0.00 | 0.00 | 29 | 1009.6 |
| 20260504210542 | 22 | 163 | 1.6 | 4.8 | 0.00 | 0.00 | 0.00 | 29 | 1009.7 |
| 20260504210039 | 21 | 214 | 1.6 | 8.0 | 0.00 | 0.00 | 0.00 | 31 | 1009.8 |
| 20260504205537 | 21 | 156 | 6.4 | 9.7 | 0.00 | 0.00 | 0.00 | 30 | 1009.6 |
| 20260504205035 | 21 | 287 | 1.6 | 4.8 | 0.00 | 0.00 | 0.00 | 32 | 1009.5 |
| 20260504204533 | 21 | 280 | 3.2 | 4.8 | 0.00 | 0.00 | 0.00 | 31 | 1009.5 |
| 20260504204032 | 21 | 155 | 3.2 | 8.0 | 0.00 | 0.00 | 0.00 | 31 | 1009.8 |
| 20260504203529 | 21 | 168 | 4.8 | 9.7 | 0.00 | 0.00 | 0.00 | 31 | 1009.5 |
| 20260504203026 | 21 | 99 | 3.2 | 9.7 | 0.00 | 0.00 | 0.00 | 31 | 1009.8 |
| 20260504202522 | 22 | 292 | 1.6 | 8.0 | 0.00 | 0.00 | 0.00 | 29 | 1009.6 |
| 20260504202019 | 22 | 40 | 6.4 | 12.9 | 0.00 | 0.00 | 0.00 | 29 | 1009.7 |
| 20260504201516 | 21 | 254 | 1.6 | 9.7 | 0.00 | 0.00 | 0.00 | 29 | 1009.5 |
| 20260504201014 | 22 | 349 | 1.6 | 4.8 | 0.00 | 0.00 | 0.00 | 29 | 1009.6 |
| 20260504200510 | 21 | 51 | 4.8 | 12.9 | 0.00 | 0.00 | 0.00 | 30 | 1009.7 |
| 20260504200007 | 22 | 226 | 3.2 | 4.8 | 0.00 | 0.00 | 0.00 | 30 | 1009.7 |
| 20260504195503 | 22 | 238 | 1.6 | 8.0 | 0.00 | 0.00 | 0.00 | 29 | 1009.7 |
| 20260504194959 | 22 | 255 | 1.6 | 4.8 | 0.00 | 0.00 | 0.00 | 29 | 1009.8 |
| 20260504194455 | 22 | 224 | 4.8 | 8.0 | 0.00 | 0.00 | 0.00 | 29 | 1009.8 |
| 20260504193951 | 21 | 316 | 4.8 | 11.3 | 0.00 | 0.00 | 0.00 | 30 | 1009.6 |
| 20260504193449 | 22 | 279 | 3.2 | 11.3 | 0.00 | 0.00 | 0.00 | 29 | 1009.9 |
| 20260504192947 | 22 | 85 | 4.8 | 8.0 | 0.00 | 0.00 | 0.00 | 29 | 1009.8 |
| 20260504192444 | 22 | 39 | 4.8 | 9.7 | 0.00 | 0.00 | 0.00 | 27 | 1009.8 |
| 20260504191943 | 22 | 159 | 11.3 | 14.5 | 0.00 | 0.00 | 0.00 | 28 | 1009.8 |
| 20260504191441 | 22 | 250 | 6.4 | 11.3 | 0.00 | 0.00 | 0.00 | 28 | 1009.9 |
| 20260504190936 | 22 | 347 | 8.0 | 12.9 | 0.00 | 0.00 | 0.00 | 29 | 1009.9 |
| 20260504190432 | 22 | 220 | 1.6 | 9.7 | 0.00 | 0.00 | 0.00 | 29 | 1010.1 |
| 20260504185929 | 21 | 291 | 1.6 | 8.0 | 0.00 | 0.00 | 0.00 | 28 | 1010.2 |
| 20260504185426 | 21 | 130 | 8.0 | 16.1 | 0.00 | 0.00 | 0.00 | 28 | 1009.9 |
| 20260504184922 | 21 | 46 | 6.4 | 16.1 | 0.00 | 0.00 | 0.00 | 28 | 1010.3 |
| 20260504184418 | 21 | 169 | 3.2 | 12.9 | 0.00 | 0.00 | 0.00 | 28 | 1010.3 |
| 20260504183914 | 21 | 82 | 6.4 | 12.9 | 0.00 | 0.00 | 0.00 | 27 | 1010.3 |
| 20260504183411 | 22 | 126 | 6.4 | 11.3 | 0.00 | 0.00 | 0.00 | 27 | 1010.3 |
| 20260504182909 | 21 | 229 | 6.4 | 9.7 | 0.00 | 0.00 | 0.00 | 27 | 1010.2 |
| 20260504182406 | 21 | 31 | 6.4 | 8.0 | 0.00 | 0.00 | 0.00 | 28 | 1010.3 |
| 20260504181903 | 21 | 188 | 4.8 | 9.7 | 0.00 | 0.00 | 0.00 | 29 | 1010.3 |
| 20260504181400 | 21 | 318 | 1.6 | 8.0 | 0.00 | 0.00 | 0.00 | 28 | 1010.3 |
| 20260504180859 | 21 | 86 | 9.7 | 14.5 | 0.00 | 0.00 | 0.00 | 28 | 1010.2 |
| 20260504180357 | 21 | 193 | 6.4 | 12.9 | 0.00 | 0.00 | 0.00 | 28 | 1010.3 |
| 20260504175855 | 21 | 308 | 3.2 | 8.0 | 0.00 | 0.00 | 0.00 | 30 | 1010.3 |
| 20260504175351 | 21 | 103 | 8.0 | 14.5 | 0.00 | 0.00 | 0.00 | 28 | 1010.5 |
| 20260504174849 | 21 | 86 | 6.4 | 9.7 | 0.00 | 0.00 | 0.00 | 29 | 1010.6 |
| 20260504174347 | 21 | 285 | 3.2 | 14.5 | 0.00 | 0.00 | 0.00 | 29 | 1010.6 |
| 20260504173843 | 20 | 84 | 6.4 | 14.5 | 0.00 | 0.00 | 0.00 | 29 | 1010.7 |
| 20260504173340 | 21 | 0 | 4.8 | 12.9 | 0.00 | 0.00 | 0.00 | 28 | 1010.7 |
| 20260504172837 | 20 | 191 | 6.4 | 9.7 | 0.00 | 0.00 | 0.00 | 28 | 1010.9 |
| 20260504172334 | 21 | 291 | 4.8 | 9.7 | 0.00 | 0.00 | 0.00 | 30 | 1010.9 |
| 20260504171829 | 21 | 298 | 3.2 | 11.3 | 0.00 | 0.00 | 0.00 | 29 | 1011.0 |
| 20260504171327 | 21 | 58 | 4.8 | 8.0 | 0.00 | 0.00 | 0.00 | 29 | 1011.0 |
| 20260504170824 | 21 | 161 | 4.8 | 9.7 | 0.00 | 0.00 | 0.00 | 29 | 1011.1 |
| 20260504170321 | 21 | 278 | 1.6 | 8.0 | 0.00 | 0.00 | 0.00 | 29 | 1010.6 |
| 20260504160239 | 20 | 147 | 8.0 | 11.3 | 0.00 | 0.00 | 0.00 | 31 | 1011.6 |
| 20260504150705 | 18 | 314 | 6.4 | 20.9 | 0.00 | 0.00 | 0.00 | 33 | 1012.1 |
| 20260504150202 | 18 | 132 | 8.0 | 12.9 | 0.00 | 0.00 | 0.00 | 33 | 1012.1 |
| 20260504141131 | 17 | 287 | 1.6 | 12.9 | 0.00 | 0.00 | 0.00 | 35 | 1012.4 |
| 20260504140627 | 18 | 89 | 4.8 | 8.0 | 0.00 | 0.00 | 0.00 | 36 | 1012.2 |
| 20260504140123 | 18 | 290 | 0.0 | 8.0 | 0.00 | 0.00 | 0.00 | 35 | 1012.3 |
| 20260504130551 | 16 | 44 | 3.2 | 9.7 | 0.00 | 0.00 | 0.00 | 40 | 1013.3 |
| 20260504110439 | 9 | 255 | 0.0 | 3.2 | 0.00 | 0.00 | 0.00 | 54 | 1013.5 |
| 20260504100401 | 5 | 263 | 0.0 | 1.6 | 0.00 | 0.00 | 0.00 | 66 | 1013.7 |
| 20260504081754 | 6 | 301 | 1.6 | 3.2 | 0.00 | 0.00 | 0.00 | 62 | 1013.5 |
| 20260504081251 | 6 | 305 | 0.0 | 0.0 | 0.00 | 0.00 | 0.00 | 62 | 1013.2 |
| 20260504080747 | 6 | 339 | 0.0 | 4.8 | 0.00 | 0.00 | 0.00 | 61 | 1013.3 |
| 20260504080244 | 6 | 282 | 1.6 | 3.2 | 0.00 | 0.00 | 0.00 | 64 | 1013.3 |
| 20260504070211 | 6 | 279 | 0.0 | 0.0 | 0.00 | 0.00 | 0.00 | 68 | 1013.1 |
| 20260504060132 | 5 | 306 | 0.0 | 1.6 | 0.00 | 0.00 | 0.00 | 70 | 1013.2 |
| 20260504050600 | 5 | 284 | 0.0 | 1.6 | 0.00 | 0.00 | 0.00 | 72 | 1013.2 |
| 20260504045554 | 5 | 284 | 0.0 | 1.6 | 0.00 | 0.00 | 0.00 | 72 | 1013.3 |
| 20260504045049 | 4 | 269 | 0.0 | 1.6 | 0.00 | 0.00 | 0.00 | 72 | 1013.3 |
| 20260504044547 | 3 | 284 | 1.6 | 3.2 | 0.00 | 0.00 | 0.00 | 73 | 1013.3 |
| 20260504044043 | 3 | 261 | 1.6 | 1.6 | 0.00 | 0.00 | 0.00 | 75 | 1013.4 |
| 20260504043541 | 3 | 276 | 0.0 | 1.6 | 0.00 | 0.00 | 0.00 | 76 | 1013.7 |
| 20260504043038 | 2 | 266 | 1.6 | 1.6 | 0.00 | 0.00 | 0.00 | 78 | 1013.5 |
| 20260504042535 | 2 | 261 | 1.6 | 1.6 | 0.00 | 0.00 | 0.00 | 79 | 1013.6 |
| 20260504042032 | 2 | 295 | 1.6 | 1.6 | 0.00 | 0.00 | 0.00 | 79 | 1013.5 |
| 20260504041527 | 1 | 282 | 0.0 | 1.6 | 0.00 | 0.00 | 0.00 | 80 | 1013.4 |
| 20260504041024 | 1 | 320 | 0.0 | 1.6 | 0.00 | 0.00 | 0.00 | 80 | 1013.4 |
| 20260504040521 | 1 | 342 | 1.6 | 1.6 | 0.00 | 0.00 | 0.00 | 80 | 1013.2 |
| 20260504040018 | 1 | 312 | 1.6 | 1.6 | 0.00 | 0.00 | 0.00 | 80 | 1013.2 |
| 20260504035515 | 1 | 312 | 0.0 | 1.6 | 0.00 | 0.00 | 0.00 | 79 | 1013.1 |
| 20260504035011 | 1 | 346 | 1.6 | 1.6 | 0.00 | 0.00 | 0.00 | 79 | 1013.2 |
| 20260504034509 | 1 | 319 | 1.6 | 3.2 | 0.00 | 0.00 | 0.00 | 79 | 1012.9 |
| 20260504034006 | 1 | 312 | 0.0 | 1.6 | 0.00 | 0.00 | 0.00 | 79 | 1013.2 |
| 20260504033504 | 1 | 311 | 0.0 | 1.6 | 0.00 | 0.00 | 0.00 | 78 | 1013.1 |
| 20260504033001 | 2 | 315 | 1.6 | 1.6 | 0.00 | 0.00 | 0.00 | 78 | 1013.1 |
| 20260504032457 | 2 | 331 | 1.6 | 1.6 | 0.00 | 0.00 | 0.00 | 77 | 1013.0 |
| 20260504031954 | 2 | 332 | 0.0 | 1.6 | 0.00 | 0.00 | 0.00 | 77 | 1013.0 |
| 20260504031451 | 2 | 343 | 1.6 | 1.6 | 0.00 | 0.00 | 0.00 | 77 | 1012.9 |
| 20260504030948 | 2 | 351 | 1.6 | 1.6 | 0.00 | 0.00 | 0.00 | 77 | 1013.1 |
| 20260504030445 | 2 | 334 | 0.0 | 1.6 | 0.00 | 0.00 | 0.00 | 76 | 1012.7 |
| 20260504025940 | 2 | 336 | 1.6 | 1.6 | 0.00 | 0.00 | 0.00 | 75 | 1012.9 |
| 20260504025438 | 2 | 346 | 1.6 | 1.6 | 0.00 | 0.00 | 0.00 | 74 | 1012.7 |
| 20260504024935 | 2 | 1 | 3.2 | 3.2 | 0.00 | 0.00 | 0.00 | 75 | 1012.8 |
| 20260504024432 | 2 | 345 | 1.6 | 1.6 | 0.00 | 0.00 | 0.00 | 74 | 1012.8 |
| 20260504023929 | 2 | 339 | 1.6 | 1.6 | 0.00 | 0.00 | 0.00 | 74 | 1012.7 |
| 20260504023425 | 3 | 344 | 1.6 | 1.6 | 0.00 | 0.00 | 0.00 | 73 | 1012.8 |
| 20260504022921 | 3 | 347 | 1.6 | 1.6 | 0.00 | 0.00 | 0.00 | 72 | 1012.9 |
| 20260504022417 | 3 | 352 | 1.6 | 1.6 | 0.00 | 0.00 | 0.00 | 71 | 1012.6 |
| 20260504021914 | 3 | 350 | 1.6 | 1.6 | 0.00 | 0.00 | 0.00 | 71 | 1012.6 |
| 20260504021411 | 3 | 348 | 1.6 | 1.6 | 0.00 | 0.00 | 0.00 | 70 | 1012.6 |
| 20260504020909 | 3 | 348 | 1.6 | 1.6 | 0.00 | 0.00 | 0.00 | 70 | 1012.7 |
| 20260504020405 | 3 | 0 | 1.6 | 3.2 | 0.00 | 0.00 | 0.00 | 70 | 1012.7 |
| 20260504015901 | 3 | 358 | 1.6 | 1.6 | 0.00 | 0.00 | 0.00 | 70 | 1012.6 |
| 20260504015357 | 3 | 353 | 1.6 | 1.6 | 0.00 | 0.00 | 0.00 | 69 | 1012.7 |
| 20260504014853 | 3 | 336 | 1.6 | 1.6 | 0.00 | 0.00 | 0.00 | 68 | 1012.8 |
| 20260504014350 | 3 | 36 | 1.6 | 1.6 | 0.00 | 0.00 | 0.00 | 69 | 1012.6 |
| 20260504013847 | 4 | 334 | 1.6 | 1.6 | 0.00 | 0.00 | 0.00 | 66 | 1012.6 |
| 20260504013345 | 4 | 334 | 1.6 | 1.6 | 0.00 | 0.00 | 0.00 | 65 | 1012.4 |
| 20260504012841 | 4 | 334 | 1.6 | 1.6 | 0.00 | 0.00 | 0.00 | 65 | 1012.3 |
| 20260504012339 | 5 | 334 | 0.0 | 1.6 | 0.00 | 0.00 | 0.00 | 66 | 1012.2 |
| 20260504011837 | 5 | 334 | 0.0 | 1.6 | 0.00 | 0.00 | 0.00 | 65 | 1012.2 |
| 20260504011333 | 5 | 334 | 1.6 | 1.6 | 0.00 | 0.00 | 0.00 | 61 | 1012.2 |
| 20260504010829 | 5 | 334 | 1.6 | 1.6 | 0.00 | 0.00 | 0.00 | 62 | 1012.2 |
| 20260504010325 | 5 | 334 | 1.6 | 1.6 | 0.00 | 0.00 | 0.00 | 62 | 1012.0 |
| 20260504005822 | 5 | 333 | 0.0 | 1.6 | 0.00 | 0.00 | 0.00 | 61 | 1012.0 |
| 20260504005318 | 6 | 333 | 0.0 | 1.6 | 0.00 | 0.00 | 0.00 | 58 | 1012.1 |
| 20260504004816 | 6 | 332 | 0.0 | 0.0 | 0.00 | 0.00 | 0.00 | 57 | 1011.9 |
| 20260504004314 | 6 | 332 | 0.0 | 0.0 | 0.00 | 0.00 | 0.00 | 55 | 1012.0 |
| 20260504003810 | 6 | 332 | 0.0 | 0.0 | 0.00 | 0.00 | 0.00 | 55 | 1011.7 |
| 20260504003307 | 6 | 332 | 0.0 | 0.0 | 0.00 | 0.00 | 0.00 | 56 | 1011.6 |
| 20260504002803 | 7 | 332 | 0.0 | 0.0 | 0.00 | 0.00 | 0.00 | 53 | 1011.7 |
| 20260504002300 | 7 | 332 | 0.0 | 0.0 | 0.00 | 0.00 | 0.00 | 53 | 1011.6 |
| 20260504001758 | 7 | 333 | 0.0 | 1.6 | 0.00 | 0.00 | 0.00 | 51 | 1011.5 |
| 20260504001255 | 7 | 332 | 0.0 | 1.6 | 0.00 | 0.00 | 0.00 | 51 | 1011.4 |
| 20260504000752 | 7 | 330 | 0.0 | 0.0 | 0.00 | 0.00 | 0.00 | 50 | 1011.7 |
| 20260504000248 | 8 | 331 | 0.0 | 1.6 | 0.00 | 0.00 | 0.00 | 49 | 1011.5 |
| 20260503235747 | 8 | 329 | 0.0 | 1.6 | 0.00 | 0.00 | 0.00 | 47 | 1011.6 |
| 20260503235243 | 8 | 338 | 0.0 | 1.6 | 0.00 | 0.00 | 0.00 | 45 | 1011.2 |
| 20260503234741 | 8 | 332 | 1.6 | 1.6 | 0.00 | 0.00 | 0.00 | 44 | 1011.4 |
| 20260503234239 | 8 | 332 | 1.6 | 1.6 | 0.00 | 0.00 | 0.00 | 43 | 1011.4 |
| 20260503233736 | 9 | 339 | 0.0 | 1.6 | 0.00 | 0.00 | 0.00 | 43 | 1011.2 |
| 20260503233232 | 10 | 340 | 0.0 | 1.6 | 0.00 | 0.00 | 0.00 | 43 | 1011.0 |
| 20260503232729 | 10 | 104 | 3.2 | 4.8 | 0.00 | 0.00 | 0.00 | 39 | 1011.1 |
| 20260503232226 | 10 | 217 | 1.6 | 3.2 | 0.00 | 0.00 | 0.00 | 41 | 1011.1 |
| 20260503231724 | 10 | 341 | 0.0 | 4.8 | 0.00 | 0.00 | 0.00 | 41 | 1011.1 |
| 20260503231221 | 10 | 6 | 1.6 | 11.3 | 0.00 | 0.00 | 0.00 | 41 | 1010.9 |
| 20260503230717 | 10 | 288 | 0.0 | 3.2 | 0.00 | 0.00 | 0.00 | 42 | 1010.9 |
| 20260503230214 | 10 | 326 | 0.0 | 1.6 | 0.00 | 0.00 | 0.00 | 40 | 1011.0 |
| 20260503225711 | 10 | 217 | 0.0 | 3.2 | 0.00 | 0.00 | 0.00 | 39 | 1010.9 |
| 20260503225206 | 10 | 131 | 1.6 | 8.0 | 0.00 | 0.00 | 0.00 | 39 | 1010.8 |
| 20260503224704 | 10 | 15 | 6.4 | 9.7 | 0.00 | 0.00 | 0.00 | 40 | 1010.7 |